Content
SEND FEEDBACK

Daily
Averages
Monthly
Summary
United States of America

LIVONIA, MICHIGAN


Home > North America > United States > Michigan
Elevation: 778 feet     Latitude: 42 13N     Longitude: 083 31W

WEATHER
 
SELECT A DAY
Number of Records: 202,813;   Date Range: 1/1/95 - 9/3/14
 
SHARE

PRINT THIS DATA

[ ← Previous Day ]
WEATHER ALMANAC - APRIL 10, 2013
[ Next Day → ]
[ °C ]   °F
Weather ElementAverageHighLow
Temperature45.5 °F50 °F (12:53 am)42.1 °F (10:53 pm)
Dewpoint40.8 °F45 °F (12:53 am)37.4 °F (11:15 pm)
Humidity83.5 %87 % (11:23 am)80 % (1:53 am)
Barometer29.93 in29.99 in (1:53 am)29.87 in (1:31 pm)
Wind Speed10.2 mph16.1 mph (7:53 pm)
Wind Gust23 mph (12:34 pm)
Weather ElementAverage
Visibility5.2 mi
Wind DirectionENE (59.1 °)

Weather ElementTotal
Precipitation0.61 in
Heating Degree Days19 (Base 65)
Averaged from 35 records on April 10, 2013
WEATHER CONDITIONS BREAKOUT
WIND DIRECTION BREAKOUT
WEATHER BY HOUR - APRIL 10, 2013
[ °C ]   °F
Local TimeTemperatureDewpointHumidityBarometerVisibilityWind DirectionWind SpeedGust SpeedPrecipitationEventsConditions
12:53 AM50.0 °F45.0 °F83 %29.97 in7.0 miNNE (30°)12.7 mphOvercast
1:53 AM48.0 °F42.1 °F80 %29.99 in10.0 miNNE (30°)12.7 mphOvercast
2:53 AM46.9 °F41.0 °F80 %29.96 in10.0 miNE (40°)11.5 mphOvercast
3:53 AM46.9 °F41.0 °F80 %29.94 in10.0 miNE (50°)10.4 mphOvercast
4:53 AM46.9 °F41.0 °F80 %29.94 in10.0 miEast (80°)8.1 mphOvercast
5:53 AM46.0 °F41.0 °F83 %29.93 in4.0 miENE (60°)6.9 mph0.04 inRainLight Rain
6:53 AM46.0 °F41.0 °F83 %29.92 in5.0 miENE (70°)6.9 mph0.01 inHaze
7:53 AM45.0 °F41.0 °F86 %29.95 in6.0 miNNE (20°)10.4 mph0.00 inOvercast
8:53 AM44.1 °F39.9 °F85 %29.95 in3.0 miNE (40°)12.7 mph0.00 inOvercast
9:37 AM44.6 °F39.2 °F81 %29.94 in2.5 miNE (40°)10.4 mphHaze
9:53 AM44.1 °F39.9 °F85 %29.94 in1.8 miNE (50°)10.4 mphOvercast
10:53 AM44.1 °F39.9 °F85 %29.91 in1.5 miEast (80°)6.9 mphOvercast
11:23 AM44.6 °F41.0 °F87 %29.92 in2.0 miEast (80°)6.9 mphOvercast
11:53 AM46.0 °F42.1 °F86 %29.91 in1.8 miEast (80°)5.8 mphOvercast
12:34 PM44.6 °F41.0 °F87 %29.96 in1.8 miNorth (360°)9.2 mph23.0 mph0.03 inRainRain
12:43 PM46.4 °F41.0 °F81 %29.93 in2.5 miNE (40°)11.5 mph0.04 inRainLight Rain
12:47 PM46.4 °F42.8 °F87 %29.94 in4.0 miNNE (30°)10.4 mph0.04 inRainLight Rain
1:25 PM46.4 °F42.8 °F87 %29.89 in2.0 miEast (80°)8.1 mph0.10 inRainRain
1:31 PM46.4 °F42.8 °F87 %29.87 in5.0 miESE (120°)11.5 mph0.10 inRainLight Rain
1:53 PM46.9 °F42.1 °F83 %29.90 in10.0 miEast (80°)5.8 mph0.10 inOvercast
2:32 PM46.4 °F42.8 °F87 %29.87 in4.0 miNNE (30°)8.1 mph0.03 inRainLight Rain
2:39 PM46.4 °F42.8 °F87 %29.88 in4.0 miENE (70°)3.5 mph0.03 inRainLight Rain
2:53 PM46.9 °F42.1 °F83 %29.87 in6.0 miNE (40°)9.2 mph0.03 inHaze
3:53 PM46.9 °F42.1 °F83 %29.91 in6.0 miNNE (20°)11.5 mphHaze
4:53 PM48.0 °F43.0 °F83 %29.94 in2.5 miNNE (20°)11.5 mph0.02 inRainLight Rain
5:04 PM48.2 °F42.8 °F82 %29.94 in5.0 miNNE (20°)12.7 mph0.00 inRainLight Rain
5:53 PM46.0 °F41.0 °F83 %29.94 in10.0 miNorth (10°)11.5 mph0.00 inOvercast
6:53 PM45.0 °F39.9 °F82 %29.94 in9.0 miENE (60°)10.4 mph0.01 inRainLight Rain
7:53 PM44.1 °F39.0 °F82 %29.96 in10.0 miNE (50°)16.1 mph0.00 inOvercast
8:53 PM43.0 °F37.9 °F82 %29.97 in9.0 miNE (40°)11.5 mphOvercast
9:53 PM43.0 °F37.9 °F82 %29.94 in9.0 miENE (60°)11.5 mphOvercast
10:53 PM42.1 °F37.9 °F85 %29.97 in2.0 miNE (50°)10.4 mphOvercast
11:15 PM42.8 °F37.4 °F81 %29.95 in1.8 miNE (40°)13.8 mph0.01 inOvercast
11:45 PM42.8 °F37.4 °F81 %29.97 in2.0 miNE (50°)13.8 mph0.01 inOvercast
11:53 PM42.1 °F37.9 °F85 %29.96 in2.0 miNE (50°)12.7 mph0.01 inOvercast
Hourly data recorded from KYIP, located miles away from Livonia, Michigan







STORIES FROM OUR PARTNERS